Location: Risskov
(56.1972°N, 10.2480°E)
Time: 00:04:53
(UTC+00:00)

Cosmos 389 Rocket - Pass Details

Date: 05 July 2020
Orbit: 442 x 477 km, 81.1° (Epoch: 03 August)

Event Time Altitude Azimuth Distance (km) Brightness Sun altitude
Rises 23:27:35 0° 351° (N) 2,516 8.2 -11.1°
Reaches altitude 10° 23:29:54 10° 4° (N) 1,628 6.8 -11.1°
Maximum altitude 23:33:00 28° 64° (ENE) 910 4.2 -11.1°
Drops below altitude 10° 23:36:03 10° 125° (SE) 1,598 4.9 -11.1°
Enters shadow 23:36:54 - 131° (SE) 1,911 5.2 -11.1°
